SCP
0 0 0 0 0 0 0 0 0 0 0 0 0 0 0 0 0 0 0 0 0 0 0 0 0 0 0 0 0 0 0 0 0 0 0 0 0 0 0 0 0 0 0
0 0 0 0 0 0 0 0 0 0 0 0 0 0 0 0 0 0 0 0 0 0 0 0 0 0 0 0 0 0 0 0 0 0 0 0 0 0 0 0 0 0 0
0 0 0 0 0 0 0 0 0 0 0 0 0 0 0 0 0 0 0 0 0 0 0 0 0 0 0 0 0 0 0 0 0 0 0 0 0 0 0 0 0 0 0
0 0 0 0 0 0 0 0 0 0 0 0 0 0 0 0 0 0 0 0 0 0 0 0 0 0 0 0 0 0 0 0 0 0 0 0 0 0 0 0 0 0 0
0 0 0 0 0 0 0 0 0 0 0 0 0 0 0 0 0 0 0 0 0 0 0 0 0 0 0 0 0 0 0 0 0 0 0 0 0 0 0 0 0 0 0
0 0 0 0 0 0 0 0 0 0 0 0 0 0 0 0 0 0 0 0 0 0 0 0 0 0 0 0 0 0 0 0 0 0 0 0 0 0 0 0 0 0 0
0 0 0 0 0 0 0 0 0 0 0 0 0 0 0 0 0 0 0 0 0 0 0 0 0 0 0 0 0 0 0 0 0 0 0 0 0 0 0 0 0 0 0
0 0 0 0 0 0 0 0 0 0 0 0 0 0 0 0 0 0 0 0 0 0 0 0 0 0 0 0 0 0 0 0 0 0 0 0 0 0 0 0 0 0 0
0 0 0 0 0 0 0 0 0 0 0 0 0 0 0 0 0 0 0 0 0 0 0 0 0 0 0 0 0 0 0 0 0 0 0 0 0 0 0 0 0 0 0
0 0 0 0 0 0 0 0 0 0 0 0 0 0 0 0 0 0 0 0 0 0 0 0 0 0 0 0 0 0 0 0 0 0 0 0 0 0 0 0 0 0 0
0 0 0 0 0 0 0 0 0 0 0 0 0 0 0 0 0 0 0 0 0 0 0 0 0 0 0 0 0 0 0 0 0 0 0 0 0 0 0 0 0 0 0
0 0 0 0 0 0 0 0 0 0 0 0 0 0 0 0 0 0 0 0 0 0 0 0 0 0 0 0 0 0 0 0 0 0 0 0 0 0 0 0 0 0 0
0 0 0 0 0 0 0 0 0 0 0 0 0 0 0 0 0 0 0 0 0 0 -0 -0 0 0 0 0 0 0 0 0 0 0 0 0 0 0 0 0 0 0 0
0 0 0 0 0 0 0 0 0 0 0 0 0 0 0 0 0 0 0 0 0 0 -0 0 0 0 0 0 0 0 0 0 0 0 0 0 0 0 0 0 0 0 0
0 0 0 0 0 0 0 0 0 0 0 0 0 0 0 0 0 0 0 0 0 0 0 0 0 0 0 0 0 0 0 0 0 0 0 0 0 0 0 0 0 0 0
0 0 0 0 0 0 0 0 0 0 0 0 0 0 0 0 0 0 0 0 0 0 0 0 0 0 0 0 0 0 0 0 0 0 0 0 0 0 0 0 0 0 0
0 0 0 0 0 0 0 0 0 0 0 0 0 0 0 0 0 0 0 0 0 0 0 0 0 0 0 0 0 0 0 0 0 0 0 0 0 0 0 0 0 0 0
0 0 0 0 0 0 0 0 0 0 0 0 0 0 0 0 0 0 0 0 0 0 0 0 0 0 0 0 0 0 0 0 0 0 0 0 0 0 0 0 0 0 0
0 0 0 0 0 0 0 0 0 0 0 0 0 0 0 0 0 0 0 0 0 0 0 0 0 0 0 0 0 0 0 0 0 0 0 0 0 0 0 0 0 0 0
0 0 0 0 0 0 0 0 0 0 0 0 0 0 0 0 0 0 0 0 0 0 0 0 0 0 0 0 0 0 0 0 0 0 0 0 0 0 0 0 0 0 0
0 0 0 0 0 0 0 0 0 0 0 0 0 0 0 0 0 0 0 0 0 0 0 0 0 0 0 0 0 0 0 0 0 0 0 0 0 0 0 0 0 0 0
0 0 0 0 0 0 0 0 0 0 0 0 0 0 0 0 0 0 0 0 0 0 0 0 0 0 0 0 0 0 0 0 0 0 0 0 0 0 0 0 0 0 0
0 0 0 0 0 0 0 0 0 0 0 0 0 0 0 0 0 0 0 0 0 0 0 0 0 0 0 0 0 0 0 0 0 0 0 0 0 0 0 0 0 0 0
0 0 0 0 0 0 0 0 0 0 0 0 0 0 0 0 0 0 0 0 0 0 0 0 0 0 0 0 0 0 0 0 0 0 0 0 0 0 0 0 0 0 0
0 0 0 0 0 0 0 0 0 0 0 0 0 0 0 0 0 0 0 0 0 0 0 0 0 0 0 0 0 0 0 0 0 0 0 0 0 0 0 0 0 0 0
0 0 0 0 0 0 0 0 0 0 0 0 0 0 0 0 0 0 0 0 0 0 0 0 0 0 0 0 0 0 0 0 0 0 0 0 0 0 0 0 0 0 0
Wind_Speed
2 2 1 1 2 1 2 2 2 2 2 2 2 1 1 1 1 1 2 4 4 4 4 4 4 4 4 4 3 3 3 3 3 2 2 2 2 2 2 2 2 2 2
2 2 1 1 1 1 1 1 1 1 1 1 2 1 1 1 1 1 1 2 4 4 4 4 4 5 5 5 3 3 3 4 3 3 3 3 3 3 2 2 2 2 2
2 2 2 1 1 1 1 1 1 1 1 1 2 1 1 1 1 1 2 1 2 4 5 4 5 5 5 5 4 4 4 4 4 4 3 3 4 3 4 4 3 3 3
2 2 2 1 1 1 1 1 1 1 1 1 1 1 1 1 1 1 1 2 1 2 3 5 5 5 5 5 6 5 5 4 4 4 4 4 4 3 4 4 4 4 4
2 2 2 1 1 1 1 0 1 1 1 1 1 1 1 1 1 1 1 1 2 2 2 4 5 5 6 6 6 6 5 5 4 4 4 4 4 4 4 4 4 5 5
2 2 2 2 2 1 0 0 0 1 0 1 1 2 1 1 1 1 1 1 2 2 2 3 2 3 5 7 7 7 6 5 5 4 5 5 4 5 5 5 5 5 5
2 2 2 2 2 1 1 1 0 0 1 1 1 2 2 1 0 0 0 1 2 2 2 3 2 2 3 6 8 8 8 6 5 5 5 5 5 6 6 5 5 5 5
1 1 2 2 2 1 1 1 1 0 1 0 1 0 2 2 2 1 1 1 1 1 2 2 2 2 3 2 6 8 9 8 6 6 6 5 6 6 6 6 6 5 5
0 1 2 2 2 2 2 2 2 2 1 1 0 1 1 2 3 2 1 1 1 1 2 2 2 2 3 2 3 6 9 9 7 6 6 6 6 6 7 7 7 7 6
1 1 1 2 2 2 2 2 2 2 2 2 1 0 1 2 1 2 2 1 2 2 2 2 2 2 2 2 4 7 8 9 8 7 7 7 7 7 7 8 7 7 7
1 1 1 1 2 2 2 2 2 2 2 2 2 1 1 0 1 1 3 3 3 2 2 2 2 2 2 2 3 5 8 8 8 7 7 8 8 8 8 9 8 8 8
1 1 1 1 2 2 2 2 2 2 3 2 2 2 2 2 2 2 3 3 3 3 3 2 2 2 2 2 4 7 8 7 8 7 7 8 8 8 8 9 9 9 8
1 2 1 1 2 2 2 2 2 2 3 3 3 3 2 2 1 2 2 2 3 3 3 2 2 2 3 2 4 7 6 7 8 8 7 7 8 8 8 9 9 9 9
2 2 2 2 2 2 2 2 2 2 2 3 4 4 2 2 2 2 2 2 2 3 3 3 2 2 2 3 5 6 4 7 8 9 8 7 7 7 8 8 9 9 9
1 2 2 2 2 2 2 2 2 3 2 2 3 3 3 2 2 2 2 2 3 3 4 3 2 2 2 3 5 4 4 7 8 9 9 8 7 8 8 8 8 9 9
2 1 1 2 2 2 2 2 2 2 2 2 2 2 3 2 2 2 2 2 3 3 4 3 2 2 3 3 5 4 4 7 7 8 9 9 8 8 7 7 8 9 9
2 2 2 2 2 2 2 2 2 2 3 2 2 2 3 2 2 2 2 2 2 2 5 5 3 2 3 3 4 4 4 3 4 7 8 8 8 8 7 7 7 8 9
2 2 2 2 2 2 2 3 3 3 3 3 3 3 4 2 3 3 3 3 3 3 4 5 4 3 3 3 3 4 4 3 3 7 8 8 8 8 7 7 7 7 8
2 2 2 1 2 2 3 3 2 3 3 4 4 4 4 3 4 3 4 4 3 3 3 4 4 3 3 2 3 3 4 3 4 5 7 7 8 8 7 7 7 7 8
2 2 2 2 2 3 2 2 2 3 3 3 3 4 4 4 5 4 4 4 3 3 3 3 4 3 3 2 2 3 4 3 3 3 5 5 7 7 7 7 7 7 8
2 2 2 3 2 2 2 2 2 3 3 3 3 3 4 5 5 5 3 3 3 3 3 3 3 3 3 2 3 2 3 3 3 2 3 3 3 3 4 6 7 7 8
2 2 2 3 3 2 3 4 3 3 3 3 4 3 4 4 6 7 6 4 4 4 4 3 3 4 5 4 3 2 3 2 3 2 2 4 2 3 4 3 6 8 8
2 2 3 3 3 4 5 5 5 3 3 3 3 3 3 3 4 3 4 4 5 6 6 4 5 5 5 4 3 4 3 4 4 3 2 4 3 4 4 4 8 8 8
3 3 3 3 3 4 6 5 5 3 2 3 3 3 3 3 2 2 2 3 3 4 4 4 4 5 4 4 4 5 5 4 4 2 1 3 3 4 4 4 7 7 8
3 3 3 3 4 5 6 6 5 2 2 3 2 2 3 2 3 3 2 2 3 3 4 5 5 5 6 5 3 1 2 1 3 3 1 2 3 3 3 3 5 6 7
3 3 3 3 4 4 7 7 5 1 2 2 2 2 3 3 3 3 2 2 3 3 2 3 4 5 4 4 4 3 3 2 2 3 1 1 2 1 3 3 2 3 4
Wind_Direction
109 98 88 81 73 63 58 51 40 32 25 20 18 25 14 3 354 353 336 350 357 354 350 340 338 330 320 312 306 314 313 300 280 268 263 261 265 274 268 257 248 269 266
122 119 106 95 79 73 65 62 48 44 15 10 3 0 339 342 350 348 340 343 354 355 352 344 340 334 329 318 314 317 318 321 314 296 274 267 262 259 263 268 255 259 262
136 133 129 114 81 64 69 54 41 46 32 18 353 344 334 339 346 340 341 336 336 347 351 352 346 336 326 330 322 316 320 313 312 314 301 290 275 264 264 265 268 259 261
144 139 135 134 112 92 77 72 51 32 17 359 335 325 318 329 337 330 345 340 343 353 351 355 347 339 335 329 331 321 318 326 324 323 321 301 291 289 275 268 263 261 259
153 148 151 151 133 121 120 99 34 35 348 334 317 314 306 296 303 326 331 337 342 350 347 349 350 345 339 334 328 324 317 318 325 327 322 315 306 288 287 285 275 269 259
163 157 157 151 142 135 121 82 34 13 317 298 323 318 299 279 283 276 320 340 346 354 348 346 345 340 343 339 334 329 318 317 324 328 323 319 316 308 293 282 280 272 267
166 161 157 152 151 166 188 184 152 0 345 341 29 333 314 276 298 266 340 346 352 348 349 348 345 343 334 336 331 333 328 315 316 316 318 323 319 312 309 310 290 281 266
157 170 164 167 173 176 178 175 141 346 313 23 100 37 328 323 327 306 336 332 331 338 341 339 336 337 332 329 322 327 326 319 310 307 309 315 312 310 311 305 311 299 278
172 174 170 169 181 180 196 202 191 180 215 251 136 152 178 252 313 313 315 327 324 324 317 319 324 319 318 317 316 321 323 318 310 304 306 304 304 308 306 305 301 305 293
205 196 184 178 183 194 205 214 198 207 191 202 238 266 205 178 196 304 310 314 314 305 307 322 317 312 310 307 310 315 319 317 313 304 303 303 302 302 302 300 297 296 295
220 218 202 186 189 201 209 215 204 210 206 194 193 192 199 221 194 211 280 305 314 296 298 301 300 304 308 303 301 310 319 315 308 305 305 302 300 300 299 299 297 293 292
259 246 220 208 212 209 210 219 212 214 218 205 204 199 189 188 202 203 240 275 288 293 296 290 284 286 302 304 302 312 314 313 308 304 304 304 302 301 302 300 297 294 291
274 264 249 237 232 223 221 218 211 217 219 212 211 217 221 225 207 203 222 266 286 294 298 288 271 285 297 298 298 310 310 314 312 306 306 306 304 303 304 302 297 295 292
258 269 253 246 241 231 225 209 215 226 223 223 223 218 220 229 222 219 207 226 284 293 289 280 291 275 285 293 297 311 309 311 312 308 306 306 304 303 301 300 299 297 296
280 271 258 255 255 238 220 201 212 222 223 232 235 228 225 228 228 229 220 211 223 270 283 277 282 288 297 296 301 304 302 303 305 306 305 302 302 300 297 296 298 298 298
298 281 280 270 266 242 223 209 212 217 210 232 237 231 231 229 230 229 229 229 228 237 264 273 268 289 297 299 305 305 297 303 300 303 304 303 300 297 296 293 293 293 295
298 288 279 271 265 256 236 221 219 219 214 228 237 232 243 234 229 227 225 226 231 233 256 281 282 286 283 297 308 306 301 295 295 304 303 300 298 297 299 301 300 298 297
293 285 278 258 256 261 256 237 229 227 218 224 233 233 241 243 236 229 224 226 231 231 239 268 282 280 277 283 294 299 303 298 292 302 302 300 298 297 300 302 301 304 303
307 306 302 277 269 263 256 250 244 238 229 230 230 233 238 234 245 240 235 236 237 240 237 251 272 274 278 292 306 302 298 296 296 300 300 297 297 297 297 300 301 304 306
314 315 305 291 275 273 265 266 264 256 247 246 242 239 238 234 241 244 239 239 239 242 241 246 259 272 279 290 291 293 299 297 294 307 298 298 301 300 300 301 303 303 305
323 316 312 309 298 280 268 270 264 259 255 253 255 253 251 255 253 249 248 237 230 240 244 248 254 266 270 277 273 278 279 299 289 297 298 298 302 299 299 297 298 300 300
331 329 317 307 299 286 286 276 273 264 259 258 261 262 260 255 259 258 259 251 240 236 238 242 254 254 261 264 274 273 279 299 292 299 293 288 290 284 286 284 296 298 297
331 321 315 313 301 293 295 287 279 276 262 261 261 263 265 267 257 251 257 257 259 259 244 235 245 253 260 258 260 262 258 258 262 279 294 282 282 273 282 288 300 301 301
327 319 318 313 311 311 309 297 291 282 278 274 264 258 262 264 261 250 252 256 262 265 258 248 246 254 260 259 244 243 248 261 275 271 228 269 281 277 287 285 298 300 302
324 323 326 325 322 318 318 309 300 289 286 292 293 279 264 259 279 273 257 259 277 288 295 285 276 274 277 275 262 239 248 254 277 278 249 257 279 288 287 283 295 305 309
317 322 323 325 321 320 323 326 324 311 301 312 315 309 293 285 287 276 249 239 259 276 296 303 301 298 282 270 258 226 218 226 250 268 245 239 280 322 305 288 295 314 314